Overview Statistics Trail Chart Weather Telemetry Raw packets
 

This is the latest recevied weather packets stored in our database for station/object KE6YLF. If no packets are shown the sender has not sent any weather packets the latest 10 day(s).

<< 45 46 47 48 49 50 51 >>
Time Temp. Humidity Pressure Rain* Wind** Luminosity Snow
1788380270 37.22° C 36% 1077.6 hPa 0 mm - - -
1788379969 37.22° C 36% 1077.8 hPa 0 mm - - -
1788379664 37.22° C 37% 1077.9 hPa 0 mm - - -
1788379360 37.78° C 35% 1077.9 hPa 0 mm - - -
1788379055 36.67° C 35% 1077.9 hPa 0 mm - - -
1788378754 37.78° C 33% 1078 hPa 0 mm - - -
1788378449 37.22° C 36% 1078.1 hPa 0 mm - - -
1788378144 37.22° C 35% 1078.2 hPa 0 mm - - -
1788377839 36.67° C 35% 1078.4 hPa 0 mm - - -
1788377534 36.67° C 35% 1078.5 hPa 0 mm - - -
1788377232 36.11° C 37% 1078.4 hPa 0 mm - - -
1788376932 36.11° C 36% 1078.4 hPa 0 mm - - -
1788376632 36.11° C 36% 1078.5 hPa 0 mm - - -
1788376327 36.67° C 35% 1078.5 hPa 0 mm - - -
1788376022 36.67° C 35% 1078.6 hPa 0 mm - - -
1788375717 36.11° C 37% 1078.7 hPa 0 mm - - -
1788375413 35.56° C 39% 1078.7 hPa 0 mm - - -
1788375109 35.56° C 38% 1079 hPa 0 mm - - -
1788374803 35.56° C 39% 1079 hPa 0 mm - - -
1788374499 35.56° C 38% 1079 hPa 0 mm - - -
1788374195 35.56° C 37% 1079.1 hPa 0 mm - - -
1788373891 35.56° C 35% 1079.2 hPa 0 mm - - -
1788373587 35.56° C 39% 1079.1 hPa 0 mm - - -
1788373283 35.56° C 41% 1079.3 hPa 0 mm - - -
1788372979 35° C 40% 1079.2 hPa 0 mm - - -

* Rain latest hour (hover to see other rain measurements)
** Current wind speed in m/s (hover to see current wind gust speed)